This is the latest recevied weather packets stored in our database for station/object N1PRS-9. If no packets are shown the sender has not sent any weather packets the latest 10 day(s).
| Time | Temp. | Humidity | Pressure | Rain* | Wind** | Luminosity | Snow |
|---|---|---|---|---|---|---|---|
| 1778079652 | 19.44° C | 73% | 1009.5 hPa | 0 mm | - | 146 W/m² | - |
| 1778078759 | 18.89° C | 72% | 1009.7 hPa | 0 mm | - | 149 W/m² | - |
| 1778078137 | 19.44° C | 73% | 1009.8 hPa | 0 mm | - | 132 W/m² | - |
| 1778076942 | 18.89° C | 75% | 1009.8 hPa | 0 mm | - | 359 W/m² | - |
| 1778075731 | 18.33° C | 77% | 1009.9 hPa | 0 mm | - | 246 W/m² | - |
| 1778074845 | 17.78° C | 78% | 1009.5 hPa | 0 mm | - | 204 W/m² | - |
| 1778073031 | 17.22° C | 81% | 1009.8 hPa | 0 mm | - | 213 W/m² | - |
| 1778072132 | 16.67° C | 82% | 1010.2 hPa | 0 mm | - | 195 W/m² | - |
| 1778070332 | 16.11° C | 83% | 1010.7 hPa | 0 mm | - | 167 W/m² | - |
| 1778069746 | 15.56° C | 84% | 1010.6 hPa | 0 mm | - | 171 W/m² | - |
| 1778068233 | 15.56° C | 85% | 1010.5 hPa | 0 mm | - | 97 W/m² | - |
| 1778067331 | 15.56° C | 85% | 1010.4 hPa | 0 mm | - | 97 W/m² | - |
| 1778066143 | 15° C | 86% | 1010.9 hPa | 0 mm | - | 93 W/m² | - |
| 1778065833 | 15° C | 86% | 1010.8 hPa | 0 mm | - | 90 W/m² | - |
| 1778063444 | 14.44° C | 87% | 1010.4 hPa | 0 mm | - | 33 W/m² | - |
| 1778063134 | 14.44° C | 87% | 1010.4 hPa | 0 mm | - | 37 W/m² | - |
| 1778062550 | 14.44° C | 86% | 1010.5 hPa | 0 mm | - | 25 W/m² | - |
| 1778062232 | 14.44° C | 86% | 1010.4 hPa | 0 mm | - | 12 W/m² | - |
| 1778061933 | 14.44° C | 86% | 1010.3 hPa | 0 mm | - | 0 W/m² | - |
| 1778061643 | 14.44° C | 86% | 1010.3 hPa | 0 mm | - | 0 W/m² | - |
| 1778060434 | 14.44° C | 85% | 1010.1 hPa | 0 mm | - | 0 W/m² | - |
| 1778059846 | 14.44° C | 85% | 1010.3 hPa | 0 mm | - | 0 W/m² | - |
| 1778058044 | 15° C | 84% | 1010.3 hPa | 0 mm | - | 0 W/m² | - |
| 1778055343 | 15° C | 83% | 1010.2 hPa | 0 mm | - | 0 W/m² | - |
| 1778053833 | 15° C | 82% | 1010.3 hPa | 0 mm | - | 0 W/m² | - |
* Rain latest hour (hover to see other rain measurements)
** Current wind speed in m/s (hover to see current wind gust speed)